Weather in Romanovskaya

Russia / Rostov Oblast     47°32′28″N   42°01′19″E
temp.,
°C
wind,
m/s
gust,
m/s
humid.,
%
clouds,
%
prec.,
mm/h
press.,
hPa
HPBL,
m
1 march, mon
mon100:00+1wsw359799 0.1 1020101
03:00+1w369899 0.3 1020249
06:00+1w2598100 0.4 1021221
09:00+1w2498100 1.1 1023205
12:00+2wnw2396100 0.6 1024201
15:00+2wnw3496100 0.8 1025314
18:00+2wnw249699 0.1 1026221
21:00+1ne349899 0.4 1027209
2 march, tue
tue200:00−1nne129790 0.1 102843
03:000nnw129191 0.1 1028128
06:00−2wsw338831 0.0 102762
09:00+1wsw577953 0.0 1027681
12:00+4wsw7106564 0.0 10241236
15:00+5wsw9126176 0.0 10211268
18:00+3wsw8146487 0.0 1019861
21:00+2wsw8167694 0.0 1017813
3 march, wed
wed300:00+2wsw91780100 0.0 1015754
03:00+1w101596100 0.1 1013878
06:00+1w71297100 2.9 1012571
09:00+1wnw61097100 4.3 1013568
12:00+3nnw6875100 0.3 10151028
15:00+4nw7107097 0.4 10171264
18:00+1nw51168100 0.1 1019598
21:000nw4107582 0.1 1022502
4 march, thu
thu400:00−1wnw38741 0.0 1023437
03:00−2w36760 0.0 1024200
06:00−1wsw59760 0.0 1024282
09:00+2wsw711620 0.0 1024781
12:00+5wsw811520 0.0 10231130
15:00+6wsw811530 0.0 10211137
18:00+3sw510716 0.0 1020271
21:00+1sw613723 0.0 1019358
5 march, fri
fri500:000sw614710 0.0 1019406
03:00+1sw615840 0.0 1018474
06:00+1sw6158963 0.0 1017479
09:00+4wsw8147744 0.0 1018800
12:00+7wsw811560 0.0 10171117
15:00+8wsw811590 0.0 10171264
18:00+6sw4107214 0.0 1017237
21:00+3sw46827 0.0 1018103